Location: Antichan
(42.9728°N, 0.6667°E)
Time: 10:17:02
(UTC+00:00)

Cosmos 2173 Rocket - Pass Details

Date: 15 August 2020
Orbit: 945 x 1000 km, 82.9° (Epoch: 18 September)

Event Time Altitude Azimuth Distance (km) Brightness Sun altitude
Exits shadow 21:41:11 44° 191° (SSW) 1,296 4.3 -24.8°
Maximum altitude 21:43:17 85° 278° (W) 963 3.9 -25.1°
Drops below altitude 10° 21:49:26 10° 7° (N) 2,680 6.9 -25.8°
Sets 21:51:55 0° 8° (N) 3,626 7.7 -26.0°
